Tracking 31027 objects as of 19-Jul-2025
HD Live streaming from Space Station
objects crossing your sky now

OBJECT F

Track OBJECT F now!
10-day predictions


NORAD ID: 44884
Int'l Code: 2019-093F
Perigee: 577.0 km
Apogee: 592.6 km
Inclination: 97.8 °
Period: 96.2 minutes
Semi major axis: 6955 km
RCS: Unknown
Launch date: December 20, 2019
Source: (TBD)
Launch site: Taiyaun Space Center, China (TSC)

Note: This is a ROCKET BODY
Your satellite tracking list
No more satellites can be added for tracking (max 5)
FOX-1B (RADFXSAT AO-91)
FOX-1D (AO-92)
FOX-1A (AO-85)
FUNCUBE 1 (AO-73)
SPACE STATION
Track 5 satellite(s)




NASA's NSSDC Master Catalog

Two Line Element Set (TLE):
1 44884U 19093F   25199.89229066  .00003341  00000-0  29881-3 0  9990
2 44884  97.8085 284.8243 0011224  79.9426 280.3061 14.96512356302507
Source of the keplerian elements: AFSPC